Weather History for Yuma MCAS, AZ

Change the Weather History Date:

Friday, October 4, 2013

  Actual Average Record
Temperature  
Mean Temperature 80 °F 82 °F  
Max Temperature 88 °F 95 °F 109 °F (1952)
Min Temperature 71 °F 70 °F 43 °F (1908)
Degree Days  
Heating Degree Days 0 0  
Month to date heating degree days 0 0  
Since 1 July heating degree days 0 0  
Cooling Degree Days 15 17  
Month to date cooling degree days 67 71  
Year to date cooling degree days 4450 4245  
Growing Degree Days 30 (Base 50)    
Moisture  
Dew Point 17 °F    
Average Humidity 21    
Maximum Humidity 35    
Minimum Humidity 6    
Precipitation  
Precipitation 0.00 in 0.01 in 1.67 in (1888)
Month to date precipitation 0.00 0.04  
Year to date precipitation 2.31 2.66  
Sea Level Pressure  
Sea Level Pressure 29.92 in    
Wind  
Wind Speed 15 mph (North)    
Max Wind Speed 26 mph    
Max Gust Speed 34 mph    
Visibility 10 miles    
Events      
T = Trace of Precipitation, MM = Missing Value Source: NWS Daily Summary

Daily Weather History Graph

Daily Weather History Graph

Search for Another Location

Airport:

Trip Planner

Search our weather history database for the weather conditions in past years. The results will help you decide how hot, cold, wet, or windy it might be!

Date:

Astronomy

Oct. 04, 2013 Rise Set
Actual Time 6:34 AM MST 6:18 PM MST
Civil Twilight 6:10 AM MST 6:43 PM MST
Nautical Twilight 5:41 AM MST 7:11 PM MST
Astronomical Twilight 5:13 AM MST 7:40 PM MST
Moon 6:13 AM MST (10/4) 6:05 PM MST (10/4)
Length of Visible Light 12h 33m
Length of Day
11h 43m
Waning Crescent, 0% of the Moon is Illuminated
Oct 4
Waning Crescent
Oct 4
New
Oct 11
First Quarter
Oct 18
Full
Oct 26
Last Quarter

Hourly Weather History & Observations

Time (MST) Temp. Dew Point Humidity Pressure Visibility Wind Dir Wind Speed Gust Speed Precip Events Conditions
12:57 AM 73.9 °F 45.0 °F 35% 29.76 in 10.0 mi West 8.1 mph - N/A   Clear
1:57 AM 73.9 °F 45.0 °F 35% 29.78 in 10.0 mi North 5.8 mph - N/A   Clear
2:57 AM 73.0 °F 36.0 °F 26% 29.78 in 10.0 mi NNE 8.1 mph - N/A   Clear
3:57 AM 77.0 °F 8.1 °F 7% 29.79 in 10.0 mi NNE 17.3 mph 26.5 mph N/A   Clear
4:57 AM 73.9 °F 8.1 °F 8% 29.81 in 10.0 mi NNE 13.8 mph - N/A   Clear
5:57 AM 73.0 °F 10.9 °F 9% 29.84 in 10.0 mi NNE 15.0 mph 21.9 mph N/A   Clear
6:57 AM 73.0 °F 12.0 °F 10% 29.87 in 10.0 mi North 16.1 mph 27.6 mph N/A   Clear
7:57 AM 73.9 °F 12.9 °F 10% 29.91 in 8.0 mi NNE 18.4 mph 31.1 mph N/A   Clear
8:57 AM 77.0 °F 14.0 °F 9% 29.94 in 8.0 mi NNE 25.3 mph 34.5 mph N/A   Clear
9:57 AM 79.0 °F 15.1 °F 9% 29.96 in 10.0 mi North 21.9 mph 27.6 mph N/A   Clear
10:57 AM 81.0 °F 15.1 °F 8% 29.97 in 10.0 mi North 16.1 mph 27.6 mph N/A   Clear
11:57 AM 84.0 °F 15.1 °F 8% 29.97 in 10.0 mi North 17.3 mph 25.3 mph N/A   Clear
12:57 PM 84.9 °F 12.9 °F 7% 29.96 in 10.0 mi North 18.4 mph 28.8 mph N/A   Clear
1:57 PM 86.0 °F 12.9 °F 7% 29.94 in 10.0 mi NNE 20.7 mph 31.1 mph N/A   Clear
2:57 PM 86.0 °F 12.9 °F 7% 29.93 in 10.0 mi North 16.1 mph 28.8 mph N/A   Clear
3:57 PM 87.1 °F 12.0 °F 6% 29.93 in 10.0 mi North 18.4 mph 25.3 mph N/A   Clear
4:57 PM 84.9 °F 9.0 °F 6% 29.93 in 10.0 mi North 18.4 mph 31.1 mph N/A   Clear
5:57 PM 82.9 °F 12.0 °F 7% 29.94 in 10.0 mi North 15.0 mph 23.0 mph N/A   Clear
6:57 PM 80.1 °F 14.0 °F 8% 29.96 in 10.0 mi North 12.7 mph - N/A   Clear
7:57 PM 78.1 °F 15.1 °F 9% 29.99 in 10.0 mi North 11.5 mph - N/A   Clear
8:57 PM 75.9 °F 18.0 °F 11% 30.00 in 10.0 mi North 11.5 mph - N/A   Clear
9:57 PM 73.9 °F 19.0 °F 13% 30.02 in 10.0 mi NNW 9.2 mph - N/A   Clear
10:57 PM 73.9 °F 19.0 °F 13% 30.02 in 10.0 mi North 12.7 mph - N/A   Clear
11:57 PM 73.9 °F 19.0 °F 13% 30.02 in 10.0 mi North 15.0 mph - N/A   Clear